This demonstration page uses our WeatherBlox Daily Observations layout. Learn more.

Left ArrowRight Arrow

Hourly Observations for October 25, 2018

Temp ( °F °C ) Dew Point ( °F °C ) Humidity (%) Winds ( mph kmh ) Pressure ( in mb ) Visibility ( mi km ) Precip ( " mm )
12:51 am 00:51 Clear 54 12.2 52 11.1 93 93 E 3 6 29.95 1014 10 16 0.00 0.00
1:51 am 01:51 Clear 54 12.2 52 11.1 93 93 Calm 29.95 1014 10 16 0.00 0.00
2:51 am 02:51 Clear 54 12.2 52 11.1 93 93 SE 5 7 29.94 1014 10 16 0.00 0.00
3:51 am 03:51 Clear 52 11.1 50 10 93 93 Calm 29.94 1014 10 16 0.00 0.00
4:51 am 04:51 Clear 50 10 49 9.4 96 96 SSW 3 6 29.96 1014 10 16 0.00 0.00
5:51 am 05:51 Clear 51 10.6 49 9.4 92 92 Calm 29.98 1015 10 16 0.00 0.00
6:51 am 06:51 Sunny 51 10.6 49 9.4 92 92 ESE 3 6 30.00 1016 10 16 0.00 0.00
7:51 am 07:51 Sunny 56 13.3 52 11.1 87 87 Calm 30.01 1016 10 16 0.00 0.00
8:51 am 08:51 Sunny 60 15.6 52 11.1 75 75 Calm 30.02 1017 10 16 0.00 0.00
9:51 am 09:51 Sunny 65 18.3 51 10.6 61 61 VRB 3 6 30.01 1016 10 16 0.00 0.00
10:51 am 10:51 Sunny 69 20.6 51 10.6 53 53 Calm 30.00 1016 10 16 0.00 0.00
11:51 am 11:51 Sunny 72 22.2 51 10.6 48 48 Calm 29.96 1015 10 16 0.00 0.00
12:51 pm 12:51 Sunny 77 25 48 8.9 36 36 NW 10 17 29.91 1013 10 16 0.00 0.00
1:51 pm 13:51 Sunny 77 25 43 6.1 30 30 WNW 15 24 29.88 1012 10 16 0.00 0.00
2:51 pm 14:51 Sunny 78 25.6 44 6.7 30 30 W 13 20 29.87 1011 10 16 0.00 0.00
3:51 pm 15:51 Sunny 78 25.6 45 7.2 31 31 WNW 13 20 29.87 1011 10 16 0.00 0.00
4:51 pm 16:51 Sunny 76 24.4 42 5.6 30 30 WNW 14 22 29.87 1012 10 16 0.00 0.00
5:51 pm 17:51 Clear 72 22.2 41 5 33 33 W 10 17 29.89 1012 10 16 0.00 0.00
6:51 pm 18:51 Clear 69 20.6 43 6.1 39 39 NW 13 20 29.90 1013 10 16 0.00 0.00
7:51 pm 19:51 Clear 68 20 44 6.7 42 42 NW 12 19 29.92 1013 10 16 0.00 0.00
8:51 pm 20:51 Clear 65 18.3 46 7.8 51 51 WNW 6 9 29.93 1013 10 16 0.00 0.00
9:51 pm 21:51 Clear 63 17.2 47 8.3 56 56 NW 7 11 29.93 1014 10 16 0.00 0.00
10:51 pm 22:51 Clear 61 16.1 48 8.9 63 63 WNW 7 11 29.93 1014 10 16 0.00 0.00
11:51 pm 23:51 Clear 61 16.1 49 9.4 65 65 NNW 7 11 29.93 1014 10 16 0.00 0.00

Powered by AerisWeather